{"data":{"norad_id":47351,"intl_designator":"2021-005C","name":"STARLINK-2017","alt_names":[],"object_type":"PAYLOAD","status":"ACTIVE","operator":null,"country":"US","launch_date":"2021-01-20","launch_site_code":"AFETR","launch_vehicle":null,"mission":null,"orbit_class":"UNKNOWN","rcs_meters":null,"size_class":null,"mass_kg":null,"dimensions":null,"purposes":["comms"],"wikipedia_slug":null,"has_3d_model":false,"image_url":null,"decayed_at":null,"tle_current":{"epoch":"2026-09-20T03:30:55.902240Z","epoch_age_seconds":52425,"freshness":"FRESH","line1":"1 47351U 21005C   26263.14648035  .00037272  00000+0  11107-2 0  9990","line2":"2 47351  53.1557 188.3187 0003322 104.9203 255.2168 15.34342884313528","mean_motion":15.34342884,"eccentricity":0.0003322,"inclination_deg":53.1557,"raan_deg":188.3187,"arg_perigee_deg":104.9203,"mean_anomaly_deg":255.2168,"bstar":0.0011107,"rev_number":31352,"period_min":93.851251569398,"perigee_km":460.60042273778,"apogee_km":465.14558978594,"semimajor_km":6841.0100062619,"source":"CELESTRAK","updated_at":"2026-09-20T09:00:38.588535Z"}}}